[Iaude] MPEC F26: 2022 FL [a=1.68,e=0.41,i=3.5,H=26.3]

mpec at marsden.cfa.harvard.edu mpec at marsden.cfa.harvard.edu
Thu Mar 24 05:30:17 EDT 2022


M.P.E.C. 2022-F26                                Issued 2022 March 24, 09:28 UT

     The Minor Planet Electronic Circulars contain information on unusual
         minor planets and routine data on comets.  They are published
    on behalf of Division F of the International Astronomical Union by the
          Minor Planet Center, Smithsonian Astrophysical Observatory,
                          Cambridge, MA 02138, U.S.A.

             Prepared using the Tamkin Foundation Computer Network

                              MPC at CFA.HARVARD.EDU
            URL https://www.minorplanetcenter.net/    ISSN 1523-6714

                                    2022 FL                                     


Observations:
     K22F00L  C2022 03 11.35362110 43 34.145-01 10 26.46         21.11GVEF026F52
     K22F00L  C2022 03 11.36577010 43 34.999-01 10 21.81         21.64GVEF026F52
     K22F00L  C2022 03 11.37788410 43 35.852-01 10 17.15         22.09GVEF026F52
     K22F00L  C2022 03 22.31420 11 21 28.68 +01 14 45.0          21.2 GVEF026V00
     K22F00L  C2022 03 22.31906 11 21 30.34 +01 14 52.1          20.9 GVEF026V00
     K22F00L  C2022 03 22.32392 11 21 31.97 +01 14 59.4          20.2 GVEF026V00
     K22F00L* C2022 03 23.24089511 28 05.46 +01 39 00.6          20.66GVEF026G96
     K22F00L  C2022 03 23.24609311 28 07.55 +01 39 09.3          20.57GVEF026G96
     K22F00L  C2022 03 23.25130311 28 09.63 +01 39 18.1          20.58GVEF026G96
     K22F00L  C2022 03 23.25651311 28 11.69 +01 39 26.9          20.38GVEF026G96
     K22F00L KC2022 03 23.33832811 28 44.26 +01 41 45.0          20.43GVEF026I52
     K22F00L KC2022 03 23.33934411 28 44.87 +01 41 46.4          20.68GVEF026I52
     K22F00L KC2022 03 23.34036011 28 45.30 +01 41 48.8          20.18GVEF026I52
     K22F00L KC2022 03 23.34137611 28 45.68 +01 41 49.8          20.11GVEF026I52
     K22F00L 1C2022 03 23.87036911 33 06.90 +01 56 48.3                VEF026246
     K22F00L 1C2022 03 23.87060711 33 07.03 +01 56 49.5                VEF026246
     K22F00L KC2022 03 23.92397111 33 33.58 +01 58 36.5          20.6 GXEF026I93
     K22F00L KC2022 03 23.93027911 33 36.40 +01 58 49.1          20.5 GXEF026I93
     K22F00L KC2022 03 23.93638311 33 39.23 +01 58 59.6          20.5 GXEF026I93
     K22F00L KC2022 03 23.94417 11 33 41.19 +01 59 16.1                VEF026104
     K22F00L KC2022 03 23.95275 11 33 45.08 +01 59 31.8          19.8 GVEF026104
     K22F00L KC2022 03 24.00080 11 34 07.49 +02 00 57.6                VEF026204
     K22F00L KC2022 03 24.01531 11 34 14.24 +02 01 24.4          20.4 GVEF026204
     K22F00L mC2022 03 24.20084711 35 59.31 +02 07 51.0          20.51GVEF026I52
     K22F00L mC2022 03 24.20130111 35 59.52 +02 07 51.3          20.17GVEF026I52
     K22F00L mC2022 03 24.20488911 36 01.25 +02 07 58.8          20.39GVEF026I52

Observer details:
104 San Marcello Pistoiese.  Observers P. Bacci, M. Maestripieri.  Measurers
    P. Bacci, L. Tesi, G. Fagioli.  0.60-m reflector + CCD.
204 Schiaparelli Observatory.  Observer L. Buzzi.  0.84-m f/3.5 reflector +
    CCD.
246 Klet Observatory-KLENOT.  Observers M. Tichy, J. Ticha, M. Honkova.
    Measurer M. Tichy.  1.06-m f/2.7 reflector + 2048x2048 CCD.
F52 Pan-STARRS 2, Haleakala.  Observers J. Bulger, K. Chambers, T. Dukes, T.
    Lowe, A. Schultz, I. Smith.  Measurers S. Chastel, M. Huber, Y.
    Ramanjooloo, R. Wainscoat, R. Weryk.  1.8-m Ritchey-Chretien + CCD.
G96 Mt. Lemmon Survey.  Observers A. Serrano, G. J. Leonard.  Measurers E. J.
    Christensen, G. A. Farneth, J. B. Fazekas, D. C. Fuls, A. R. Gibbs, A. D.
    Grauer, H. Groeller, J. K. Hogan, R. A. Kowalski, S. M. Larson, G. J.
    Leonard, D. Rankin, R. L. Seaman, A. Serrano, F. C. Shelly, K. W.
    Wierzchos.  1.5-m reflector + 10K CCD.
I52 Steward Observatory, Mt. Lemmon Station.  Observer K. W. Wierzchos.
    Measurers E. J. Christensen, G. A. Farneth, J. B. Fazekas, D. C. Fuls, A.
    R. Gibbs, A. D. Grauer, H. Groeller, J. K. Hogan, R. A. Kowalski, S. M.
    Larson, G. J. Leonard, D. Rankin, R. L. Seaman, A. Serrano, F. C. Shelly,
    K. W. Wierzchos.
I93 St Pardon de Conques.  Observer F. Losse.  0.40-m f/3.7 reflector + CCD.
V00 Kitt Peak-Bok.  Observer H. Groeller.  Measurers B. Gray, D. Rankin, F. C.
    Shelly.  2.25-m reflector + CCD.

Orbital elements:
2022 FL                                                  Earth MOID = 0.0171 AU
Epoch 2022 Jan. 21.0 TT = JDT 2459600.5                 Veres                   
M 317.94596              (2000.0)            P               Q                  
n   0.45224461     Peri.   34.98305     -0.78732594     +0.61652804             
a   1.6809461      Node   183.08610     -0.57880353     -0.74098537             
e   0.4114534      Incl.    3.53813     -0.21237779     -0.26614632             
P   2.18           H   26.35          G   0.15           U   8                  
Residuals in seconds of arc
220311 F52  0.1-  0.0     220323 G96  0.0   0.0     220323 I93  0.1+  0.6-
220311 F52  0.0   0.0     220323 I52 (2.8-  0.2-)   220323 104  0.0   0.2+
220311 F52  0.2+  0.1-    220323 I52  0.2+  0.5-    220323 104  0.3-  0.0
220322 V00  0.0   0.0     220323 I52  0.4+  0.2+    220324 204  0.1-  0.2+
220322 V00  0.1+  0.0     220323 I52  0.0   0.5-    220324 204  0.0   0.1-
220322 V00  0.3-  0.2+    220323 246  0.3+  0.4-    220324 I52  0.1-  0.0
220323 G96  0.2-  0.1+    220323 246  0.6+  0.4+    220324 I52  0.1-  0.5-
220323 G96  0.0   0.0     220323 I93  0.5+  0.6-    220324 I52  0.3+  0.0
220323 G96  0.2+  0.1+    220323 I93  0.5-  0.3+

Ephemeris:
2022 FL                  a,e,i = 1.68, 0.41, 4                   q = 0.9893
Date    TT    R. A. (2000) Decl.     Delta      r    Elong.  Phase     V
2022 02 22    10 29 33.6 -01 38 02   0.1976  1.1829   167.7    10.2    23.9
...
2022 03 09    10 40 03.1 -01 23 12   0.1165  1.1074   169.1     9.8    22.5
...
2022 03 17    10 56 48.4 -00 18 01   0.07936 1.0725   167.7    11.4    21.7
...
2022 03 23    11 26 15.1 +01 33 46   0.05389 1.0495   169.4    10.0    20.8
2022 03 24    11 34 09.0 +02 02 56   0.04990 1.0460   170.2     9.3    20.6
2022 03 25    11 43 26.0 +02 36 49   0.04601 1.0426   171.1     8.5    20.3
...
2022 03 31    13 34 07.0 +08 34 40   0.02652 1.0239   161.0    18.6    19.5
...
2022 04 08    18 33 29.6 +12 11 20   0.02977 1.0048    96.4    82.0    21.6
...
2022 04 23    20 50 57.9 +07 00 19   0.08409 0.9890    76.4    98.8    24.5

M. P. C. Staff               (C) Copyright 2022 MPC           M.P.E.C. 2022-F26




More information about the Iaude mailing list